This demonstration page uses our WeatherBlox Daily Observations layout. Learn more.

Left ArrowRight Arrow

44.8408, -93.29828

Hourly Observations for December 4, 2022

Temp ( °F °C ) Dew Point ( °F °C ) Humidity (%) Winds ( mph kmh ) Pressure ( in mb ) Visibility ( mi km ) Precip ( " mm )
12:53 am 00:53 Clear 10 -12.2 4 -15.6 76 76 Calm 30.23 1024 10 16 0.00 0.00
1:53 am 01:53 Clear 11 -11.7 5 -15 76 76 Calm 30.21 1023 10 16 0.00 0.00
2:53 am 02:53 Clear 12 -11.1 6 -14.4 76 76 SW 3 6 30.20 1023 10 16 0.00 0.00
3:53 am 03:53 Clear 12 -11.1 6 -14.4 76 76 Calm 30.20 1023 10 16 0.00 0.00
4:53 am 04:53 Clear 11 -11.7 6 -14.4 80 80 Calm 30.19 1022 10 16 0.00 0.00
5:53 am 05:53 Clear 13 -10.6 7 -13.9 77 77 SSW 3 6 30.17 1022 10 16 0.00 0.00
6:53 am 06:53 Clear 13 -10.6 7 -13.9 77 77 SW 5 7 30.14 1021 10 16 0.00 0.00
7:53 am 07:53 Sunny 13 -10.6 8 -13.3 80 80 SW 7 11 30.11 1020 10 16 0.00 0.00
8:53 am 08:53 Sunny 17 -8.3 11 -11.7 76 76 WSW 6 9 30.12 1020 10 16 0.00 0.00
9:53 am 09:53 Sunny 21 -6.1 12 -11.1 68 68 WSW 12 19 30.11 1020 10 16 0.00 0.00
10:53 am 10:53 Sunny 24 -4.4 12 -11.1 59 59 SW 8 13 30.08 1019 10 16 0.00 0.00
11:53 am 11:53 Sunny 28 -2.2 13 -10.6 52 52 WSW 10 17 30.05 1018 10 16 0.00 0.00
12:53 pm 12:53 Sunny 30 -1.1 13 -10.6 48 48 SW 10 17 30.01 1016 10 16 0.00 0.00
1:53 pm 13:53 Sunny 32 0 14 -10 47 47 WSW 12 19 29.97 1015 10 16 0.00 0.00
2:53 pm 14:53 Sunny 33 0.6 14 -10 45 45 SSW 8 13 29.93 1014 10 16 0.00 0.00
3:53 pm 15:53 Sunny 34 1.1 16 -8.9 47 47 SSW 12 19 29.90 1013 10 16 0.00 0.00
4:53 pm 16:53 Clear 33 0.6 16 -8.9 49 49 SW 9 15 29.88 1012 10 16 0.00 0.00
5:53 pm 17:53 Clear 32 0 16 -8.9 51 51 SW 10 17 29.85 1011 10 16 0.00 0.00
6:53 pm 18:53 Clear 32 0 15 -9.4 49 49 SW 12 19 29.82 1010 10 16 0.00 0.00
7:53 pm 19:53 Clear 32 0 16 -8.9 51 51 SW 12 19 29.81 1009 10 16 0.00 0.00
8:53 pm 20:53 Clear 31 -0.6 17 -8.3 56 56 WSW 8 13 29.79 1009 10 16 0.00 0.00
9:53 pm 21:53 Clear 31 -0.6 18 -7.8 58 58 SW 9 15 29.78 1009 10 16 0.00 0.00
10:53 pm 22:53 Mostly Clear 27 -2.8 17 -8.3 66 66 W 3 6 29.78 1009 10 16 0.00 0.00
11:53 pm 23:53 Mostly Cloudy 28 -2.2 18 -7.8 65 65 SSW 6 9 29.77 1008 10 16 0.00 0.00

Powered by AerisWeather